Temp
17 17 16 16 16 15 15 14 14 13 13 13 13 12 12 12 12 12 12 12 12 12 12 12 11 11 11 11 11 11 11 10 10 11 10 11 11 10 10 10 9 10 8
15 16 16 16 15 15 14 14 13 13 12 13 13 12 12 12 12 12 12 12 11 11 11 11 11 11 10 10 10 11 11 11 10 10 10 10 10 10 11 10 9 9 9
14 14 15 15 14 14 15 13 12 12 12 11 11 12 12 12 12 11 11 11 11 11 11 11 11 11 10 11 11 11 11 11 11 11 11 11 11 11 11 11 11 10 9
14 14 15 14 13 12 11 11 11 11 11 10 10 11 12 13 13 11 11 11 11 11 11 11 11 10 10 10 10 10 10 10 10 10 10 10 10 10 10 10 10 10 9
14 14 13 13 13 13 11 10 10 10 10 9 10 11 12 12 11 11 11 11 11 11 11 10 10 10 10 10 10 10 10 10 10 9 10 9 10 10 9 9 9 9 8
14 14 13 12 13 11 9 10 10 10 11 12 10 11 11 10 10 10 11 11 10 10 10 10 10 10 9 10 9 9 9 9 9 9 9 9 10 9 8 8 9 8 8
14 14 13 11 11 11 11 10 11 11 11 11 10 9 9 10 10 10 10 9 9 10 9 9 9 9 10 10 9 9 9 8 7 7 8 8 8 7 7 8 8 8 8
14 14 14 12 11 11 11 10 11 12 11 11 10 9 9 10 10 9 9 9 9 8 8 9 9 9 9 9 9 8 8 7 7 6 6 7 7 7 7 7 7 7 7
13 12 12 11 12 11 11 11 12 11 10 9 9 9 9 9 9 9 9 8 8 8 8 9 9 9 8 6 6 6 6 7 6 6 6 6 7 7 7 7 7 7 7
11 11 12 12 12 12 12 12 11 10 9 9 9 9 8 9 9 8 7 7 7 8 8 8 8 7 6 5 4 4 5 5 6 6 6 6 6 7 7 7 7 7 7
12 12 12 12 12 12 11 10 9 9 9 9 9 8 9 8 7 7 7 7 7 7 7 7 7 6 5 4 4 4 4 5 5 6 6 6 6 7 7 7 7 7 7
12 11 12 12 11 10 10 10 9 9 9 8 8 8 7 6 6 6 6 6 6 6 6 6 5 4 3 3 3 4 4 5 5 5 5 6 6 6 6 6 6 7 6
11 11 11 11 10 10 9 9 9 8 8 7 7 6 6 5 5 5 5 6 6 5 5 5 4 3 3 3 3 3 3 3 4 5 5 5 5 5 5 6 6 6 6
11 10 10 10 10 9 9 9 8 8 7 6 6 5 5 5 5 5 5 5 5 5 4 3 2 2 1 1 1 2 3 3 3 3 3 4 4 5 4 4 5 5 6
10 10 10 9 9 9 8 8 7 7 6 6 5 5 4 4 5 4 5 4 4 4 3 2 2 2 2 2 2 2 2 2 2 2 3 4 4 4 4 4 4 5 5
10 10 9 9 8 8 8 7 7 6 5 5 5 4 4 4 4 4 4 3 4 3 2 1 1 1 1 2 1 1 1 2 0 1 1 1 1 2 2 2 4 4 4
9 9 9 8 8 8 7 6 6 5 5 5 4 4 4 3 3 3 4 3 3 2 2 2 1 1 1 1 0 0 0 0 -0 -0 1 1 1 1 1 2 2 3 3
8 8 8 7 7 6 6 6 5 6 5 5 3 3 3 3 3 3 3 3 1 1 1 0 0 1 0 -0 -1 -1 -1 -1 -1 -1 -1 -1 -0 0 0 1 1 1 2
7 7 7 6 6 5 6 5 4 3 3 3 3 1 1 2 2 2 2 1 -0 0 1 0 -0 0 -0 -1 0 -1 -1 -1 -1 -1 -1 -1 -0 -0 -0 -1 -0 -0 0
7 7 6 6 5 5 5 4 3 1 1 1 0 -0 -0 2 2 1 -0 -0 -0 0 -1 -0 -1 0 -0 -0 -0 -1 -1 -1 -1 -1 -1 -1 -1 -1 -1 -1 -1 -1 -1
6 6 5 5 4 5 5 3 1 1 0 1 1 -0 0 0 1 0 0 1 0 0 -0 -0 -1 -0 -1 -1 -1 -1 -0 -0 -1 -0 -1 -1 -1 -1 -1 -1 -1 -2 -2
6 6 5 4 4 2 2 2 2 2 1 1 1 1 1 1 1 1 0 0 0 0 -0 0 0 -0 0 0 0 -1 -0 -0 -0 -0 -1 -1 -1 -1 -1 -2 -1 -1 -1
5 5 5 5 4 3 2 2 1 1 1 1 1 1 0 1 0 1 1 0 -0 0 -0 -0 -0 0 0 1 1 -0 1 1 0 -0 -1 -1 -1 -1 -1 -1 -2 -1 -2
5 4 3 3 3 2 2 2 2 1 2 1 1 1 1 1 1 1 0 0 0 1 0 -0 -0 -1 0 1 1 1 1 0 0 0 0 -1 -1 -1 -1 -1 -2 -2 -2
4 3 4 3 3 3 2 2 1 1 1 0 2 1 0 1 1 1 0 1 1 0 0 0 0 1 -0 1 1 1 1 0 0 0 0 -1 -1 -2 -1 -2 -2 -2 -3
4 3 3 2 2 2 2 1 1 1 0 1 -0 1 1 0 0 0 1 1 1 0 0 0 0 0 1 1 1 1 1 0 0 0 -0 -0 -0 -0 -1 -2 -2 -2 -3
Height
3166 3169 3171 3173 3174 3176 3177 3178 3179 3179 3179 3181 3182 3182 3181 3180 3179 3177 3175 3173 3171 3168 3165 3162 3159 3153 3149 3147 3144 3140 3137 3135 3127 3130 3129 3131 3129 3127 3127 3122 3118 3108 3113
3160 3163 3166 3169 3171 3172 3172 3172 3172 3172 3172 3171 3172 3174 3174 3170 3170 3169 3167 3164 3163 3160 3156 3152 3149 3145 3141 3136 3132 3129 3126 3124 3119 3115 3119 3118 3119 3120 3116 3116 3114 3113 3116
3155 3157 3160 3163 3169 3170 3173 3169 3169 3167 3167 3166 3169 3168 3167 3166 3163 3163 3160 3156 3154 3150 3146 3141 3137 3132 3128 3123 3119 3115 3113 3110 3108 3103 3100 3103 3106 3107 3104 3102 3104 3105 3107
3144 3147 3152 3158 3159 3168 3163 3168 3169 3169 3161 3163 3166 3165 3160 3157 3156 3155 3152 3147 3144 3141 3135 3130 3125 3120 3114 3110 3106 3103 3098 3095 3093 3091 3089 3087 3088 3091 3091 3091 3089 3092 3096
3142 3150 3154 3156 3156 3157 3161 3162 3161 3159 3156 3145 3157 3160 3151 3149 3149 3146 3144 3141 3135 3129 3125 3119 3114 3108 3103 3098 3093 3090 3087 3084 3081 3078 3076 3075 3076 3076 3077 3080 3078 3080 3084
3139 3145 3149 3151 3149 3152 3154 3155 3156 3156 3154 3151 3150 3148 3144 3144 3142 3139 3135 3131 3124 3119 3114 3109 3103 3098 3093 3089 3085 3080 3077 3071 3068 3066 3064 3062 3064 3063 3064 3064 3067 3069 3069
3134 3137 3138 3146 3148 3152 3155 3157 3154 3150 3147 3142 3140 3142 3142 3138 3135 3132 3126 3121 3115 3109 3104 3099 3093 3088 3081 3076 3072 3069 3066 3062 3057 3054 3052 3054 3052 3052 3052 3052 3054 3058 3059
3133 3134 3135 3141 3147 3151 3150 3148 3148 3144 3141 3138 3136 3136 3135 3130 3127 3122 3118 3113 3107 3102 3096 3090 3083 3078 3071 3063 3058 3055 3053 3051 3048 3045 3042 3043 3042 3043 3043 3043 3045 3048 3048
3127 3131 3133 3138 3143 3143 3144 3142 3141 3140 3135 3133 3131 3128 3125 3124 3119 3116 3111 3107 3102 3096 3090 3084 3076 3069 3062 3055 3049 3043 3041 3040 3038 3036 3034 3033 3033 3033 3033 3035 3036 3039 3039
3125 3130 3130 3132 3134 3136 3138 3137 3136 3132 3129 3126 3124 3121 3118 3116 3112 3108 3106 3102 3097 3091 3085 3077 3070 3062 3054 3049 3042 3036 3032 3031 3028 3028 3027 3025 3025 3024 3025 3025 3028 3030 3032
3123 3125 3127 3128 3130 3130 3131 3130 3127 3125 3122 3118 3115 3114 3113 3111 3107 3104 3100 3095 3089 3084 3078 3071 3064 3057 3050 3045 3039 3033 3027 3024 3022 3020 3019 3018 3017 3016 3017 3018 3020 3023 3026
3122 3123 3124 3124 3125 3125 3124 3121 3119 3117 3115 3112 3111 3108 3108 3107 3103 3099 3095 3090 3085 3080 3074 3067 3059 3053 3047 3041 3035 3029 3024 3019 3017 3014 3013 3012 3012 3012 3013 3014 3015 3018 3022
3118 3118 3118 3118 3118 3118 3118 3115 3113 3111 3110 3108 3107 3104 3102 3101 3098 3095 3092 3087 3083 3078 3071 3064 3057 3050 3044 3039 3032 3027 3022 3016 3012 3010 3010 3009 3009 3009 3009 3010 3011 3014 3018
3112 3114 3114 3114 3113 3114 3113 3110 3107 3107 3105 3103 3102 3100 3099 3098 3096 3093 3090 3086 3081 3076 3070 3063 3058 3052 3045 3041 3035 3028 3022 3016 3012 3009 3009 3008 3007 3006 3006 3007 3008 3011 3014
3109 3110 3111 3111 3109 3107 3106 3105 3103 3102 3101 3100 3098 3098 3096 3094 3093 3091 3087 3083 3079 3074 3070 3065 3062 3056 3049 3042 3035 3030 3023 3018 3013 3010 3007 3006 3005 3003 3002 3003 3005 3006 3010
3106 3106 3106 3105 3103 3101 3101 3100 3099 3098 3097 3097 3096 3095 3094 3092 3091 3088 3085 3081 3078 3073 3069 3066 3062 3057 3051 3045 3039 3032 3026 3020 3016 3011 3008 3006 3005 3003 3002 2998 3000 2998 3003
3102 3101 3100 3099 3097 3098 3098 3097 3096 3095 3094 3094 3094 3093 3091 3090 3088 3086 3083 3081 3077 3073 3070 3067 3063 3058 3054 3048 3044 3039 3032 3026 3020 3017 3012 3009 3006 3005 3005 3003 3002 3001 3004
3097 3097 3096 3095 3094 3093 3092 3092 3091 3091 3091 3091 3090 3089 3088 3087 3086 3084 3081 3078 3075 3073 3071 3068 3064 3060 3056 3052 3049 3045 3039 3034 3030 3025 3021 3017 3012 3008 3007 3008 3008 3008 3009
3094 3093 3092 3092 3091 3091 3090 3089 3089 3089 3089 3087 3087 3086 3086 3085 3084 3081 3079 3077 3075 3073 3071 3070 3066 3062 3058 3056 3053 3049 3045 3041 3037 3034 3029 3026 3023 3018 3015 3013 3012 3012 3012
3090 3090 3089 3089 3088 3087 3087 3086 3086 3086 3086 3085 3085 3085 3084 3083 3080 3079 3079 3077 3075 3074 3072 3069 3065 3063 3059 3057 3054 3051 3048 3046 3042 3040 3036 3032 3028 3025 3024 3022 3019 3018 3017
3087 3087 3086 3085 3084 3085 3083 3083 3083 3083 3084 3084 3085 3084 3083 3081 3080 3079 3077 3076 3076 3073 3071 3068 3066 3063 3061 3058 3055 3052 3050 3048 3045 3043 3039 3036 3034 3032 3030 3029 3027 3026 3025
3082 3082 3083 3082 3082 3081 3080 3079 3079 3080 3080 3080 3081 3080 3080 3080 3078 3078 3077 3075 3074 3071 3071 3068 3066 3064 3062 3060 3058 3055 3053 3050 3048 3046 3043 3041 3038 3037 3035 3033 3031 3031 3030
3078 3076 3077 3079 3077 3076 3075 3075 3075 3075 3076 3077 3078 3078 3078 3078 3077 3076 3076 3072 3072 3071 3068 3067 3065 3064 3062 3060 3060 3057 3055 3053 3051 3048 3046 3044 3042 3040 3040 3039 3036 3034 3033
3074 3073 3072 3072 3072 3072 3072 3071 3072 3071 3068 3072 3073 3074 3076 3075 3075 3075 3071 3071 3069 3068 3068 3066 3065 3064 3063 3061 3059 3059 3057 3055 3053 3051 3049 3047 3044 3042 3041 3040 3038 3036 3034
3069 3068 3068 3066 3066 3065 3066 3067 3066 3066 3062 3065 3069 3070 3071 3071 3073 3071 3070 3069 3068 3067 3067 3065 3065 3063 3063 3061 3060 3059 3058 3056 3054 3051 3049 3046 3044 3043 3041 3038 3036 3035 3033
3063 3063 3063 3062 3062 3060 3063 3064 3062 3061 3057 3059 3064 3066 3068 3064 3068 3066 3068 3067 3065 3065 3065 3064 3063 3062 3062 3061 3060 3059 3058 3056 3054 3051 3049 3046 3044 3042 3040 3036 3034 3032 3029
Wind_Speed
25 24 23 22 22 21 22 23 25 25 22 17 18 19 21 24 27 31 32 33 35 34 33 38 39 39 39 40 39 40 39 39 43 42 40 37 32 36 41 41 40 26 26
24 26 27 27 26 24 25 27 30 28 24 21 16 19 24 26 29 33 35 33 34 35 38 41 43 41 41 40 42 42 43 42 45 47 43 41 39 40 45 41 40 40 33
35 35 31 27 21 26 40 34 29 24 24 21 20 20 24 29 33 35 36 35 37 41 45 46 47 46 45 43 44 44 44 45 45 48 49 46 44 42 43 44 43 42 38
45 43 34 22 20 26 28 30 30 23 18 16 20 20 23 28 35 46 41 40 44 45 46 48 46 43 42 42 43 42 43 44 44 45 46 46 44 41 41 41 43 41 38
42 30 26 24 34 40 33 25 24 24 28 11 17 30 33 37 43 43 44 46 49 50 47 44 44 42 41 42 44 43 43 43 43 43 44 44 43 41 40 39 42 39 36
38 34 25 23 28 19 19 25 25 19 14 15 32 36 41 43 48 48 48 48 46 44 44 44 43 42 43 43 42 42 42 40 39 39 38 38 37 37 36 37 36 36 38
33 32 21 20 14 14 17 15 17 24 26 43 49 39 40 46 48 46 45 41 42 42 41 41 42 43 45 45 43 41 38 37 36 36 36 31 31 28 28 30 35 34 37
20 18 23 22 19 15 20 27 34 39 30 30 39 38 42 43 44 41 38 39 39 39 40 41 43 43 43 43 42 38 36 35 33 34 35 31 29 27 28 28 28 31 33
24 27 24 16 16 21 38 35 32 30 21 24 32 37 39 37 38 35 34 34 34 35 35 37 40 42 41 40 39 38 32 29 29 30 31 30 29 28 29 29 28 29 35
26 24 22 21 26 23 27 27 27 24 26 30 33 33 31 32 33 32 31 31 32 33 35 37 38 37 36 34 33 32 30 25 24 25 26 26 27 26 24 27 29 30 29
27 26 21 23 22 22 24 26 24 24 27 30 30 28 28 26 26 26 28 29 30 32 34 35 35 32 30 28 28 29 30 25 22 23 22 22 23 22 19 18 18 21 23
23 23 27 20 17 19 22 23 24 27 26 24 24 24 21 19 21 24 26 28 30 31 32 31 29 26 24 26 29 30 28 25 22 21 18 19 19 19 15 14 16 16 18
23 24 18 17 17 19 21 24 25 25 22 18 17 18 19 19 20 22 24 25 26 26 26 29 32 30 25 29 28 29 31 28 20 20 15 16 13 14 14 14 12 13 14
20 17 17 17 17 21 23 23 20 17 15 14 15 16 17 16 17 19 20 21 23 24 23 27 31 33 31 28 25 26 27 20 19 18 16 15 16 13 13 13 16 15 15
17 17 17 19 20 20 17 15 14 14 13 13 14 14 14 14 15 16 18 19 21 20 19 22 25 28 30 30 30 24 23 23 21 18 13 12 12 9 11 15 19 13 18
16 16 18 19 18 14 13 13 13 13 12 12 12 11 11 11 11 14 16 15 17 17 18 18 22 25 29 32 37 34 32 20 22 22 19 13 11 9 6 5 11 12 15
14 15 15 13 11 11 12 12 12 11 10 10 9 8 7 8 11 13 14 11 12 17 17 18 19 21 22 26 32 33 35 36 25 23 25 21 18 4 6 8 13 16 21
12 10 10 13 14 13 14 14 14 13 10 9 6 6 7 8 10 11 11 10 10 16 18 15 16 19 22 21 24 28 31 31 31 31 29 29 27 21 13 6 9 9 11
9 11 12 13 13 11 13 13 12 11 9 11 9 7 11 7 10 8 10 10 9 8 14 15 18 20 19 19 19 19 24 25 28 29 27 29 28 29 30 32 24 9 4
10 10 12 12 10 11 13 13 7 7 9 7 8 10 12 10 12 10 7 13 9 11 14 13 11 14 15 19 17 19 20 21 21 24 23 26 26 29 30 24 26 25 24
12 12 12 11 11 11 12 10 8 10 9 7 9 11 14 15 10 9 8 7 14 13 17 13 10 14 12 14 12 15 16 14 18 21 20 21 22 19 21 23 21 20 18
14 14 11 11 11 11 14 19 15 13 13 7 9 13 14 9 7 5 5 7 15 11 10 11 9 10 12 13 8 10 13 16 15 16 17 18 21 20 19 24 22 21 16
15 16 14 12 13 14 15 16 16 17 14 12 11 10 13 13 11 7 10 9 17 13 14 7 11 9 10 9 8 9 13 16 15 14 13 13 13 17 14 14 15 12 17
16 15 14 16 17 13 23 18 17 21 17 11 17 8 11 10 10 14 4 5 17 12 11 3 8 6 8 9 10 11 12 13 14 14 15 14 10 15 14 15 15 14 15
14 13 22 21 21 25 20 26 21 22 21 10 8 13 11 15 12 17 11 8 5 4 9 9 12 7 7 7 5 9 12 14 15 15 14 15 15 13 17 20 17 17 19
13 14 18 17 17 19 19 21 25 25 16 6 13 13 13 12 7 15 5 6 15 3 5 7 15 10 8 7 6 8 10 13 16 17 16 16 18 12 18 22 21 20 22
Wind_Direction
233 237 238 241 245 247 256 261 260 261 267 284 281 293 302 304 305 304 302 304 302 301 302 304 301 300 298 296 293 291 289 287 286 287 286 281 281 277 277 282 285 252 276
246 237 231 236 242 244 248 255 254 254 255 259 270 281 289 292 295 297 299 300 301 301 302 304 304 295 292 291 289 288 285 284 283 282 279 279 275 273 277 276 278 283 272
242 246 231 227 234 270 279 256 254 254 264 277 277 289 296 306 311 311 309 304 302 307 308 307 302 299 297 294 290 287 284 281 278 278 279 277 274 272 270 273 273 273 274
232 238 229 212 257 283 275 267 262 262 260 267 301 311 312 304 294 299 306 309 309 308 308 305 303 302 302 299 294 290 285 282 280 277 277 277 276 273 268 268 268 268 270
226 238 232 262 277 286 256 251 242 250 258 264 301 284 290 299 306 303 305 307 310 311 307 306 305 304 302 298 294 292 289 287 285 283 280 279 278 276 270 266 266 268 264
223 237 260 271 265 205 213 239 256 260 264 250 292 289 294 303 307 307 307 307 310 308 307 307 308 307 301 297 293 292 293 292 286 285 286 284 281 277 273 266 263 264 262
235 242 242 196 189 219 243 272 281 282 280 278 284 282 294 302 304 304 309 309 309 310 311 312 312 312 308 303 297 293 289 287 288 288 284 285 284 280 276 264 255 257 259
230 225 230 232 249 253 296 295 278 286 285 269 272 276 293 301 302 308 308 310 312 313 314 318 316 314 311 307 304 299 291 284 280 277 280 282 276 271 262 263 259 248 251
226 224 237 221 275 270 279 280 281 272 274 266 287 295 297 302 304 306 311 312 313 318 320 320 320 319 316 313 311 308 304 292 280 279 278 279 278 274 267 255 252 250 247
217 213 237 250 269 263 280 273 271 280 284 286 288 294 299 301 306 312 314 317 322 323 325 323 322 319 315 316 313 315 313 308 288 283 279 281 279 277 273 259 253 254 251
228 227 247 278 271 275 275 272 281 286 286 292 297 295 301 307 309 316 322 328 331 330 327 326 325 322 318 319 323 322 325 313 301 291 284 281 278 279 272 262 251 247 243
236 245 265 267 272 273 280 288 290 289 292 293 297 302 307 313 319 327 332 332 332 333 335 339 339 336 336 334 327 325 328 322 302 301 292 282 277 274 264 252 245 241 239
254 264 264 274 281 289 292 293 291 290 291 297 304 309 317 325 330 332 333 335 336 343 347 355 3 357 344 343 342 339 335 340 326 307 304 308 296 286 264 250 231 233 240
261 262 274 282 291 292 290 288 290 294 301 306 312 316 318 324 327 330 332 337 345 351 0 19 19 16 9 358 355 360 3 348 341 334 318 297 302 280 287 265 242 239 249
256 268 280 289 290 291 293 296 300 301 308 313 312 312 314 324 326 327 337 343 350 357 12 24 21 24 25 23 22 8 5 11 14 8 358 333 309 321 294 265 260 245 243
267 280 288 290 291 295 300 303 301 303 307 306 306 310 314 318 325 333 343 345 357 17 24 26 24 21 25 29 31 29 26 24 28 27 17 3 6 354 320 289 187 194 231
280 289 290 288 291 300 300 297 296 297 302 304 300 299 306 313 325 335 335 334 16 26 25 23 22 19 18 27 28 30 38 39 42 35 34 33 42 330 72 101 152 160 161
287 295 297 299 302 303 305 307 306 304 305 299 296 291 309 316 325 330 326 342 3 12 2 6 358 6 12 22 19 18 35 38 44 49 48 48 48 52 58 44 242 188 178
298 304 305 301 295 298 299 298 294 280 295 307 319 331 325 311 309 333 355 12 17 346 1 360 359 11 4 2 21 11 34 30 39 39 47 53 53 58 61 63 60 64 97
303 304 298 292 291 298 297 290 294 297 320 348 0 310 292 313 327 333 355 340 3 344 336 346 354 349 349 5 6 14 33 34 41 35 33 39 33 31 31 44 53 61 67
304 305 294 285 290 290 294 302 258 235 268 264 276 278 283 295 293 351 339 350 344 325 346 360 14 346 1 351 4 13 30 15 15 12 22 26 28 35 32 33 45 49 39
305 303 282 267 267 275 262 276 284 255 260 251 259 300 293 298 304 345 351 346 324 312 328 315 5 342 337 342 359 22 16 16 20 20 27 31 23 30 22 29 29 28 28
299 290 286 274 281 296 290 289 278 272 246 267 243 248 291 304 323 332 312 335 320 319 321 334 348 360 356 14 27 29 17 25 22 17 20 16 356 4 9 9 8 352 351
285 274 279 292 267 285 300 286 292 270 239 278 268 210 269 307 317 293 276 270 286 323 322 359 304 322 349 4 21 35 30 24 19 12 8 7 9 359 356 349 349 354 343
268 264 259 293 276 297 301 284 285 265 262 255 245 206 242 262 272 295 334 325 310 25 2 348 342 327 319 359 30 29 24 9 1 8 8 6 6 4 359 352 342 335 335
281 287 270 283 277 272 284 296 288 282 250 237 192 195 225 279 264 269 292 295 283 294 287 339 326 343 348 336 9 9 2 348 348 351 356 359 356 347 324 334 340 330 320